1486890000.4,9970,11.75,74046.5,9.49,-31.17,-31.95,0,*44
1486890001.64,9971,11.75,74048.3,9.49,-31.67,-32.19,0,*45
1486890002.86,9972,11.75,74048.5,9.49,-31.29,-32.01,0,*45
1486890004.07,9973,11.75,74046.8,9.47,-30.89,-31.33,0,*43
1486890005.28,9974,11.69,74044.8,9.49,-31.01,-31.79,0,*45
1486890006.53,9975,11.75,74046.0,9.49,-31.61,-32.35,0,*49
1486890007.77,9976,11.75,74052.0,9.49,-32.23,-33.09,0,*41
1486890008.99,9977,11.75,74046.8,9.53,-31.29,-32.13,0,*48
1486890010.23,9978,11.75,74050.3,9.49,-30.95,-31.67,0,*4A
1486890011.48,9979,11.75,74046.3,9.49,-30.77,-31.45,0,*47
1486890012.72,9980,11.75,74044.5,9.53,-30.73,-31.29,0,*44
1486890013.96,9981,11.75,74050.3,9.53,-31.05,-31.73,0,*4A
1486890015.2,9982,11.75,74046.8,9.53,-31.05,-31.61,0,*4A
1486890016.41,9983,11.75,74044.8,9.55,-31.17,-31.91,0,*41
1486890017.65,9984,11.75,74048.5,9.57,-31.73,-32.57,0,*4F
1486890018.87,9985,11.75,74048.8,9.55,-32.75,-33.55,0,*4A
1486890020.08,9986,11.75,74050.3,9.55,-31.51,-32.13,0,*4F
1486890021.29,9987,11.69,74042.8,9.55,-31.39,-32.01,0,*43
1486890022.5,9988,11.75,74050.3,9.55,-31.05,-31.85,0,*4C
1486890023.75,9989,11.75,74050.0,9.57,-30.89,-31.67,0,*46
1486890025.02,9990,11.75,74050.8,9.53,-30.95,-31.61,0,*41
1486890026.23,9991,11.75,74048.0,9.57,-30.33,-31.05,0,*4A
1486890027.48,9992,11.75,74052.0,9.57,-30.33,-30.89,0,*4C
1486890028.72,9993,11.75,74050.8,9.57,-30.51,-31.05,0,*4C
1486890029.97,9994,11.75,74048.3,9.59,-31.11,-31.95,0,*49
1486890031.19,9995,11.75,74048.0,9.59,-32.85,-33.83,0,*43
1486890032.38,9996,11.75,74048.0,9.59,-33.03,-33.95,0,*48
1486890033.6,9997,11.75,74050.8,9.59,-33.77,-34.59,0,*4D
1486890034.82,9998,11.75,74048.8,9.55,-34.31,-35.13,0,*44
1486890036.02,9999,11.75,74050.0,9.55,-33.55,-34.31,0,*41
1486890037.27,10000,11.75,74050.3,9.49,-33.77,-34.71,0,*79
1486890038.52,10001,11.75,74048.0,9.49,-34.13,-35.07,0,*7D
1486890039.75,10002,11.75,74050.8,9.47,-34.19,-35.13,0,*7F
1486890040.97,10003,11.75,74046.5,9.45,-33.55,-34.41,0,*75
1486890042.22,10004,11.75,74054.0,9.45,-34.07,-34.83,0,*7C
1486890043.47,10005,11.75,74046.8,9.41,-33.15,-33.73,0,*75
1486890044.7,10006,11.75,74050.0,9.43,-32.39,-33.27,0,*7A
1486890045.9,10007,11.75,74044.5,9.43,-32.23,-32.91,0,*7C
1486890047.13,10008,11.75,74048.3,9.43,-32.19,-32.91,0,*7A
1486890048.33,10009,11.75,74048.0,9.43,-33.67,-34.25,0,*7A
1486890049.55,10010,11.75,74050.8,9.43,-35.01,-35.89,0,*73
1486890050.77,10011,11.75,74048.3,9.37,-35.29,-36.25,0,*7E
1486890051.99,10012,11.75,74044.8,9.37,-35.41,-36.07,0,*73
1486890053.19,10013,11.75,74050.8,9.33,-35.13,-35.89,0,*74
1486890054.42,10014,11.75,74050.8,9.33,-34.77,-35.65,0,*72
1486890055.64,10015,11.75,74050.0,9.31,-33.21,-33.95,0,*7C
1486890056.89,10016,11.75,74048.0,9.27,-32.35,-32.85,0,*7C
1486890058.16,10017,11.75,74050.8,9.31,-32.79,-33.61,0,*79
1486890059.41,10018,11.75,74048.0,9.27,-33.67,-34.65,0,*7C
1486890060.64,10019,11.75,74050.5,9.27,-33.67,-34.47,0,*7D
1486890061.86,10020,11.75,74048.5,9.23,-33.15,-34.07,0,*72
1486890063.14,10021,11.75,74048.8,9.23,-33.49,-34.53,0,*7B
1486890064.34,10022,11.75,74046.3,9.25,-33.83,-34.71,0,*78
1486890065.58,10023,11.75,74048.5,9.21,-34.53,-35.47,0,*73
1486890066.8,10024,11.75,74048.8,9.21,-33.31,-34.07,0,*72
1486890068.04,10025,11.75,74050.5,9.19,-34.07,-35.01,0,*7D
1486890069.29,10026,11.75,74048.8,9.19,-34.65,-35.59,0,*77
1486890070.55,10027,11.75,74048.0,9.17,-35.23,-36.25,0,*73
1486890071.83,10028,11.75,74048.3,9.15,-34.53,-35.41,0,*79
1486890073.08,10029,11.75,74048.0,9.15,-33.95,-34.65,0,*72
1486890074.35,10030,11.75,74048.0,9.15,-32.75,-33.61,0,*76
1486890075.62,10031,11.75,74048.8,9.15,-33.77,-34.83,0,*7F
1486890076.84,10032,11.75,74048.8,9.13,-33.49,-34.07,0,*7B
1486890078.04,10033,11.75,74052.0,9.13,-32.35,-33.15,0,*74
1486890079.28,10034,11.75,74048.8,9.13,-32.07,-32.69,0,*78
1486890080.53,10035,11.75,74048.5,9.13,-31.57,-32.19,0,*78
1486890081.76,10036,11.75,74050.8,9.13,-32.51,-33.27,0,*72
1486890083.02,10037,11.75,74050.0,9.13,-32.07,-32.79,0,*7A
1486890084.27,10038,11.75,74048.5,9.15,-31.67,-32.45,0,*79
1486890085.51,10039,11.75,74050.0,9.15,-31.51,-32.35,0,*7A
1486890086.76,10040,11.75,74050.0,9.15,-31.11,-31.79,0,*7B
1486890087.97,10041,11.75,74054.5,9.17,-31.29,-32.01,0,*7F
1486890089.17,10042,11.75,74048.0,9.17,-31.45,-32.13,0,*75
1486890090.39,10043,11.75,74048.8,9.21,-31.67,-32.45,0,*72
1486890091.62,10044,11.75,74048.5,9.21,-32.57,-33.31,0,*77
1486890092.87,10045,11.75,74048.5,9.19,-32.45,-33.21,0,*7F
1486890094.13,10046,11.75,74054.3,9.19,-32.57,-33.31,0,*7E
1486890095.33,10047,11.75,74050.3,9.17,-33.21,-34.13,0,*76
1486890096.56,10048,11.75,74050.5,9.17,-34.19,-35.13,0,*74
1486890097.81,10049,11.75,74054.5,9.17,-33.77,-34.65,0,*7A
1486890099.09,10050,11.75,74052.0,9.15,-34.01,-34.95,0,*79
1486890100.36,10051,11.75,74050.8,9.15,-31.61,-32.29,0,*7A
1486890101.62,10052,11.75,74054.5,9.17,-31.23,-31.85,0,*78
1486890102.87,10053,11.75,74050.3,9.17,-30.95,-31.51,0,*7C
1486890104.07,10054,11.75,74048.3,9.17,-31.05,-31.67,0,*76
1486890105.35,10055,11.75,74052.8,9.19,-31.57,-32.29,0,*77
1486890106.57,10056,11.75,74052.8,9.21,-30.67,-31.39,0,*7F
1486890107.8,10057,11.75,74050.8,9.21,-30.83,-31.39,0,*74
1486890109.06,10058,11.75,74050.8,9.21,-31.11,-31.85,0,*76
1486890110.34,10059,11.75,74052.3,9.23,-30.95,-31.51,0,*71
1486890111.55,10060,11.75,74048.8,9.25,-30.39,-31.05,0,*7A
1486890112.77,10061,11.75,74048.0,9.25,-30.55,-31.29,0,*7F
1486890114.0,10062,11.75,74048.5,9.25,-30.77,-31.33,0,*77
1486890115.22,10063,11.75,74048.8,9.25,-30.61,-31.45,0,*70
1486890116.45,10064,11.75,74048.0,9.25,-31.45,-32.19,0,*7A
1486890117.67,10065,11.75,74052.0,9.31,-31.17,-31.79,0,*7C
1486890118.95,10066,11.75,74050.3,9.27,-30.89,-31.51,0,*74
1486890120.2,10067,11.75,74048.8,9.31,-30.67,-31.39,0,*7C
1486890121.43,10068,11.75,74048.8,9.31,-30.83,-31.45,0,*72
1486890122.71,10069,11.75,74048.3,9.31,-31.23,-31.91,0,*71
1486890123.93,10070,11.75,74050.3,9.33,-30.95,-31.67,0,*7E
1486890125.13,10071,11.81,74054.0,9.33,-30.45,-31.17,0,*75
1486890126.37,10072,11.75,74052.0,9.35,-30.61,-31.33,0,*70
1486890127.58,10073,11.75,74050.3,9.37,-30.45,-31.11,0,*75
1486890128.81,10074,11.75,74050.8,9.37,-30.77,-31.45,0,*72
1486890130.08,10075,11.75,74050.5,9.39,-30.95,-31.51,0,*74
1486890131.3,10076,11.75,74052.5,9.37,-30.23,-30.95,0,*7D
1486890132.55,10077,11.75,74048.8,9.39,-30.11,-30.89,0,*7E
1486890133.79,10078,11.75,74050.5,9.41,-29.95,-30.67,0,*7A
1486890135.02,10079,11.75,74050.3,9.43,-30.11,-30.77,0,*7C
1486890136.25,10080,11.75,74052.0,9.43,-31.05,-31.85,0,*72
1486890137.5,10081,11.75,74050.5,9.43,-32.19,-32.79,0,*7D
1486890138.73,10082,11.75,74048.3,9.43,-30.95,-31.67,0,*74
1486890139.98,10083,11.75,74048.5,9.45,-30.51,-31.05,0,*7F
1486890141.23,10084,11.75,74052.5,9.45,-30.95,-31.67,0,*74
1486890142.44,10085,11.75,74054.0,9.47,-31.51,-32.13,0,*7E
1486890143.69,10086,11.81,74054.8,9.45,-30.95,-31.67,0,*76
1486890144.94,10087,11.75,74050.8,9.45,-30.61,-31.33,0,*7D
1486890146.16,10088,11.81,74054.0,9.45,-30.45,-31.05,0,*71
1486890147.39,10089,11.75,74048.5,9.45,-30.45,-31.17,0,*73
1486890148.6,10090,11.81,74054.3,9.47,-30.55,-31.29,0,*75
1486890149.85,10091,11.75,74050.0,9.49,-30.61,-31.29,0,*7D
1486890151.12,10092,11.81,74054.5,9.53,-30.55,-31.23,0,*78
1486890152.34,10093,11.81,74054.0,9.53,-30.33,-31.05,0,*7D
1486890153.59,10094,11.81,74052.5,9.53,-30.83,-31.57,0,*76
1486890154.86,10095,11.75,74048.5,9.53,-30.51,-31.11,0,*7A
1486890156.12,10096,11.75,74050.3,9.53,-30.89,-31.45,0,*7D
1486890157.37,10097,11.75,74050.0,9.57,-30.11,-30.89,0,*78
1486890158.61,10098,11.81,74052.5,9.57,-31.05,-31.85,0,*7E
1486890159.87,10099,11.75,74050.5,9.57,-30.83,-31.39,0,*77
1486890161.09,10100,11.75,74050.0,9.55,-30.45,-31.23,0,*75
1486890162.33,10101,11.75,74052.0,9.57,-30.51,-31.05,0,*77
1486890163.58,10102,11.75,74050.0,9.57,-31.67,-32.45,0,*77
1486890164.82,10103,11.81,74054.3,9.57,-31.05,-31.73,0,*74
1486890166.08,10104,11.81,74052.8,9.57,-31.73,-32.39,0,*7F
1486890167.32,10105,11.75,74050.8,9.57,-31.05,-31.91,0,*7E
1486890168.54,10106,11.81,74052.3,9.57,-31.01,-31.67,0,*70
1486890169.8,10107,11.75,74048.8,9.57,-32.01,-32.75,0,*72
1486890171.04,10108,11.81,74052.5,9.57,-33.31,-34.25,0,*7C
1486890172.28,10109,11.75,74052.3,9.57,-32.91,-33.73,0,*72
1486890173.5,10110,11.81,74050.8,9.55,-32.13,-32.97,0,*79
1486890174.72,10111,11.81,74052.3,9.55,-32.23,-32.97,0,*7B
1486890175.94,10112,11.81,74052.3,9.55,-31.57,-32.23,0,*77
1486890177.16,10113,11.75,74048.8,9.55,-31.05,-31.85,0,*7E
1486890178.4,10114,11.75,74046.0,9.55,-31.51,-32.29,0,*7D
1486890179.62,10115,11.81,74054.0,9.55,-31.67,-32.45,0,*73
1486890180.83,10116,11.81,74050.8,9.55,-33.15,-33.89,0,*76
1486890182.05,10117,11.81,74052.0,9.55,-34.19,-35.17,0,*7D
1486890183.31,10118,11.75,74048.3,9.49,-34.31,-35.29,0,*78
1486890184.54,10119,11.75,74048.3,9.49,-34.13,-35.13,0,*70
1486890185.76,10120,11.75,74050.3,9.45,-33.37,-34.41,0,*71
1486890186.98,10121,11.75,74050.3,9.45,-33.55,-34.41,0,*74
1486890188.24,10122,11.75,74046.5,9.45,-32.39,-33.27,0,*7B
1486890189.48,10123,11.81,74050.8,9.43,-32.97,-33.89,0,*7C
1486890190.69,10124,11.75,74048.3,9.43,-32.23,-32.91,0,*7C
1486890191.91,10125,11.75,74048.0,9.43,-31.51,-32.23,0,*72
1486890193.17,10126,11.81,74050.5,9.41,-31.79,-32.45,0,*79
1486890194.43,10127,11.75,74048.5,9.43,-31.91,-32.75,0,*7F
1486890195.68,10128,11.75,74050.3,9.43,-31.73,-32.29,0,*75
1486890196.93,10129,11.75,74048.3,9.41,-32.63,-33.37,0,*7A
1486890198.18,10130,11.81,74052.5,9.41,-33.31,-34.25,0,*70
1486890199.42,10131,11.81,74052.8,9.41,-33.61,-34.41,0,*76
1486890200.69,10132,11.81,74054.5,9.41,-32.97,-33.77,0,*7F
1486890201.95,10133,11.75,74050.0,9.41,-32.23,-32.85,0,*7D
1486890203.19,10134,11.75,74050.3,9.39,-31.17,-31.95,0,*73
1486890204.43,10135,11.81,74050.3,9.39,-31.95,-32.57,0,*75
1486890205.69,10136,11.81,74052.0,9.41,-31.29,-32.07,0,*7B
1486890206.97,10137,11.81,74052.8,9.41,-31.11,-31.91,0,*7D
1486890208.23,10138,11.81,74050.8,9.41,-31.95,-32.69,0,*7A
1486890209.46,10139,11.81,74052.0,9.43,-31.11,-31.67,0,*78
1486890210.69,10140,11.81,74052.8,9.43,-31.33,-31.91,0,*7F
1486890211.88,10141,11.81,74048.8,9.43,-31.01,-31.67,0,*76
1486890213.13,10142,11.81,74052.8,9.45,-31.51,-32.23,0,*75
1486890214.36,10143,11.81,74048.5,9.43,-30.95,-31.67,0,*78
1486890215.61,10144,11.81,74052.0,9.47,-31.11,-31.95,0,*7B
1486890216.83,10145,11.81,74054.3,9.45,-31.05,-31.67,0,*70
1486890218.08,10146,11.81,74052.3,9.45,-31.39,-32.01,0,*7F
1486890219.34,10147,11.81,74050.8,9.45,-32.01,-32.79,0,*79
1486890220.59,10148,11.81,74050.5,9.45,-32.91,-33.73,0,*74
1486890221.83,10149,11.81,74048.0,9.45,-32.23,-32.97,0,*77
1486890223.06,10150,11.81,74052.0,9.45,-31.67,-32.23,0,*73
1486890224.28,10151,11.81,74050.5,9.47,-31.73,-32.35,0,*72
1486890225.5,10152,11.81,74054.8,9.47,-30.95,-31.67,0,*7C
1486890226.73,10153,11.81,74050.8,9.47,-31.95,-32.69,0,*71
1486890227.95,10154,11.81,74052.0,9.47,-31.01,-31.85,0,*7A
1486890229.14,10155,11.81,74052.3,9.47,-31.01,-31.67,0,*77
1486890230.42,10156,11.81,74054.3,9.49,-30.95,-31.95,0,*7B
1486890231.64,10157,11.81,74054.8,9.49,-31.67,-32.35,0,*7F
1486890232.89,10158,11.81,74052.3,9.49,-32.19,-32.91,0,*74
1486890234.16,10159,11.81,74054.0,9.53,-31.39,-32.19,0,*7F
1486890235.44,10160,11.81,74054.3,9.53,-31.39,-32.07,0,*7A
1486890236.71,10161,11.81,74052.5,9.53,-30.95,-31.61,0,*7F
1486890237.94,10162,11.81,74052.5,9.53,-30.67,-31.29,0,*7D
1486890239.2,10163,11.81,74054.3,9.53,-30.39,-30.95,0,*71
1486890240.42,10164,11.81,74054.3,9.53,-31.05,-31.79,0,*7B
1486890241.66,10165,11.81,74052.0,9.53,-31.39,-32.13,0,*7A
1486890242.91,10166,11.81,74052.3,9.55,-31.85,-32.63,0,*7F
1486890244.12,10167,11.81,74054.3,9.55,-32.01,-32.91,0,*7C
1486890245.31,10168,11.81,74054.3,9.55,-31.33,-32.01,0,*78
1486890246.53,10169,11.81,74050.8,9.55,-31.01,-31.57,0,*78
1486890247.77,10170,11.81,74052.8,9.55,-30.89,-31.57,0,*71
1486890248.96,10171,11.81,74054.0,9.55,-32.39,-33.21,0,*7A
1486890250.18,10172,11.81,74052.3,9.55,-31.85,-32.57,0,*7D
1486890251.38,10173,11.81,74054.3,9.55,-31.67,-32.39,0,*78
1486890252.6,10174,11.81,74052.3,9.55,-31.05,-31.85,0,*7F
1486890253.85,10175,11.81,74054.8,9.57,-30.83,-31.51,0,*7A
1486890255.1,10176,11.81,74054.8,9.57,-31.17,-31.91,0,*79
1486890256.38,10177,11.81,74050.5,9.57,-31.23,-32.07,0,*73
1486890257.62,10178,11.81,74054.0,9.57,-31.73,-32.57,0,*7C
1486890258.85,10179,11.81,74054.5,9.57,-32.39,-33.15,0,*77
1486890260.1,10180,11.81,74054.8,9.57,-31.17,-31.91,0,*70
1486890261.34,10181,11.81,74054.5,9.61,-30.77,-31.67,0,*7A
1486890262.57,10182,11.81,74052.0,9.59,-31.61,-32.23,0,*77
1486890263.77,10183,11.81,74052.8,9.59,-31.67,-32.39,0,*7B
1486890265.03,10184,11.81,74048.5,9.59,-31.61,-32.75,0,*72
1486890266.26,10185,11.81,74054.8,9.59,-31.29,-32.07,0,*7A
1486890267.49,10186,11.81,74054.3,9.59,-31.11,-31.79,0,*78
1486890268.76,10187,11.81,74054.8,9.61,-30.55,-31.11,0,*7D
1486890270.0,10188,11.81,74054.5,9.61,-30.55,-31.29,0,*79
1486890271.28,10189,11.81,74052.3,9.61,-30.51,-31.11,0,*77
1486890272.56,10190,11.81,74052.8,9.65,-31.95,-32.75,0,*73
1486890273.78,10191,11.81,74056.8,9.63,-32.13,-32.97,0,*75
1486890275.03,10192,11.81,74052.8,9.63,-31.91,-32.63,0,*74
1486890276.25,10193,11.81,74054.0,9.63,-32.69,-33.61,0,*72
1486890277.47,10194,11.81,74052.3,9.63,-32.29,-33.03,0,*75
1486890278.67,10195,11.81,74054.8,9.63,-32.01,-32.69,0,*73
1486890279.93,10196,11.81,74052.3,9.61,-32.13,-32.85,0,*73
1486890281.12,10197,11.81,74052.0,9.63,-33.37,-34.13,0,*7E
1486890282.32,10198,11.81,74052.5,9.59,-32.39,-33.15,0,*76
1486890283.54,10199,11.81,74052.8,9.59,-32.35,-33.09,0,*76
1486890284.77,10200,11.81,74048.8,9.59,-31.17,-31.95,0,*71
1486890286.0,10201,11.81,74054.3,9.59,-32.01,-32.75,0,*79
1486890287.2,10202,11.81,74048.3,9.59,-32.91,-33.95,0,*7C
1486890288.41,10203,11.81,74050.8,9.59,-32.01,-32.69,0,*76
1486890289.64,10204,11.81,74050.8,9.59,-30.73,-31.45,0,*7B
1486890290.89,10205,11.81,74052.3,9.61,-31.29,-31.95,0,*72
1486890292.15,10206,11.81,74048.3,9.61,-31.95,-32.69,0,*76
1486890293.42,10207,11.81,74054.0,9.61,-32.97,-33.73,0,*7C
1486890294.65,10208,11.81,74048.5,9.59,-31.61,-32.23,0,*76
1486890295.85,10209,11.81,74052.8,9.59,-32.23,-32.91,0,*7B
1486890297.08,10210,11.81,74052.5,9.59,-32.75,-33.67,0,*78
1486890298.33,10211,11.81,74050.8,9.59,-34.01,-34.95,0,*76
1486890299.61,10212,11.81,74050.5,9.57,-33.49,-34.31,0,*7E
1486890300.83,10213,11.81,74052.0,9.57,-32.13,-32.91,0,*7D
1486890302.08,10214,11.81,74048.0,9.57,-32.75,-33.55,0,*73
1486890303.33,10215,11.81,74052.5,9.55,-31.91,-32.79,0,*76
1486890304.6,10216,11.81,74048.8,9.57,-31.73,-32.29,0,*7E
1486890305.88,10217,11.81,74054.0,9.57,-32.07,-32.97,0,*7A
1486890307.15,10218,11.81,74052.3,9.57,-31.39,-32.07,0,*72
1486890308.38,10219,11.81,74054.0,9.59,-31.33,-32.07,0,*77
1486890309.58,10220,11.81,74052.0,9.59,-32.23,-33.03,0,*7A
1486890310.83,10221,11.81,74054.5,9.57,-32.79,-33.55,0,*79
1486890312.08,10222,11.81,74052.3,9.57,-32.79,-33.55,0,*7A
1486890313.33,10223,11.81,74050.8,9.57,-32.79,-33.67,0,*7A
1486890314.55,10224,11.81,74050.8,9.55,-32.91,-33.73,0,*7C
1486890315.76,10225,11.81,74054.8,9.55,-33.15,-33.89,0,*75
1486890316.96,10226,11.81,74054.3,9.55,-32.57,-33.15,0,*74
1486890318.21,10227,11.81,74048.5,9.55,-32.79,-33.73,0,*79
1486890319.46,10228,11.81,74054.5,9.53,-32.69,-33.61,0,*72
1486890320.68,10229,11.81,74054.3,9.49,-32.91,-33.83,0,*73
1486890321.9,10230,11.81,74050.8,9.53,-31.79,-32.35,0,*79
1486890323.15,10231,11.81,74050.0,9.55,-30.77,-31.51,0,*70
1486890324.37,10232,11.81,74050.3,9.55,-30.83,-31.51,0,*78
1486890325.6,10233,11.81,74052.8,9.59,-31.11,-31.79,0,*75
1486890326.85,10234,11.81,74050.0,9.57,-31.91,-32.57,0,*7B
1486890328.1,10235,11.81,74050.3,9.57,-30.67,-31.39,0,*79
1486890329.31,10236,11.81,74054.3,9.57,-31.01,-31.67,0,*70
1486890330.58,10237,11.81,74054.0,9.61,-30.39,-30.95,0,*72
1486890331.83,10238,11.81,74052.0,9.61,-31.73,-32.35,0,*7A
1486890333.09,10239,11.81,74052.5,9.61,-32.51,-33.27,0,*7A
1486890334.29,10240,11.81,74050.5,9.59,-31.33,-32.01,0,*7D
1486890335.57,10241,11.81,74054.8,9.61,-32.79,-33.73,0,*7E
1486890336.8,10242,11.81,74050.3,9.59,-31.95,-32.51,0,*76
1486890338.05,10243,11.81,74052.3,9.61,-31.61,-32.35,0,*75
1486890339.33,10244,11.81,74054.8,9.61,-30.89,-31.61,0,*77
1486890340.56,10245,11.81,74052.0,9.61,-31.29,-32.01,0,*78
1486890341.78,10246,11.81,74052.5,9.63,-30.77,-31.45,0,*70
1486890343.04,10247,11.81,74052.0,9.63,-31.23,-31.95,0,*7C
1486890344.29,10248,11.81,74048.5,9.65,-31.33,-32.07,0,*7C
1486890345.54,10249,11.81,74052.5,9.63,-30.89,-31.61,0,*78
1486890346.77,10250,11.81,74050.0,9.63,-31.45,-32.19,0,*7D
1486890348.01,10251,11.81,74050.5,9.65,-31.67,-32.29,0,*79
1486890349.24,10252,11.81,74050.5,9.67,-32.51,-33.31,0,*76
1486890350.52,10253,11.81,74052.3,9.65,-31.95,-32.63,0,*78
1486890351.8,10254,11.81,74054.3,9.65,-31.23,-31.95,0,*78
1486890353.05,10255,11.81,74052.5,9.65,-30.61,-31.17,0,*74
1486890354.31,10256,11.81,74050.8,9.65,-30.67,-31.51,0,*73
1486890355.53,10257,11.81,74054.5,9.67,-31.17,-31.85,0,*7F
1486890356.78,10258,11.81,74052.5,9.69,-31.61,-32.35,0,*77
1486890358.01,10259,11.81,74052.5,9.67,-31.11,-31.79,0,*74
1486890359.28,10260,11.81,74052.0,9.69,-30.77,-31.51,0,*7B
1486890360.54,10261,11.81,74052.0,9.69,-30.83,-31.51,0,*71
1486890361.78,10262,11.81,74052.8,9.73,-30.39,-31.05,0,*79
1486890362.99,10263,11.81,74054.0,9.71,-30.39,-31.05,0,*7A
1486890364.25,10264,11.81,74052.3,9.73,-30.23,-30.89,0,*71
1486890365.48,10265,11.81,74052.8,9.79,-29.95,-30.51,0,*7A
1486890366.71,10266,11.81,74052.3,9.77,-30.11,-30.83,0,*7C
1486890367.92,10267,11.81,74052.8,9.79,-30.39,-31.01,0,*72
1486890369.13,10268,11.81,74054.0,9.79,-30.67,-31.45,0,*76
1486890370.36,10269,11.81,74050.3,9.79,-30.83,-31.51,0,*78
1486890371.62,10270,11.81,74054.3,9.81,-31.45,-32.07,0,*7C
1486890372.89,10271,11.81,74052.5,9.81,-30.95,-31.51,0,*71
1486890374.14,10272,11.81,74052.0,9.81,-30.51,-31.33,0,*7E
1486890375.38,10273,11.81,74052.0,9.81,-30.77,-31.67,0,*7A
1486890376.61,10274,11.81,74052.3,9.83,-30.45,-31.11,0,*7F
1486890377.83,10275,11.81,74052.0,9.83,-30.23,-30.89,0,*7E
1486890379.06,10276,11.81,74054.0,9.83,-30.61,-31.45,0,*7A
1486890380.31,10277,11.81,74052.5,9.85,-30.95,-31.67,0,*76
1486890381.59,10278,11.81,74050.0,9.85,-31.23,-31.95,0,*78
1486890382.84,10279,11.81,74056.3,9.85,-31.29,-31.95,0,*73
1486890384.09,10280,11.81,74050.5,9.85,-31.57,-32.35,0,*75
1486890385.37,10281,11.81,74052.0,9.85,-31.11,-31.95,0,*7F
1486890386.64,10282,11.81,74054.5,9.85,-30.89,-31.57,0,*72
1486890387.85,10283,11.81,74052.3,9.87,-30.11,-30.83,0,*78
1486890389.08,10284,11.81,74050.3,9.87,-29.79,-30.51,0,*76
1486890390.32,10285,11.81,74052.3,9.89,-30.11,-30.95,0,*77
1486890391.55,10286,11.81,74054.3,9.91,-30.61,-31.33,0,*77
1486890392.79,10287,11.81,74052.8,9.89,-31.17,-31.73,0,*7B
1486890394.02,10288,11.81,74052.8,9.91,-30.51,-31.17,0,*7C
1486890395.27,10289,11.81,74054.8,9.91,-31.11,-31.73,0,*7A
1486890396.47,10290,11.81,74052.3,9.91,-30.67,-31.29,0,*7D
1486890397.7,10291,11.81,74050.3,9.93,-30.45,-31.29,0,*7E
1486890398.97,10292,11.81,74056.0,9.93,-30.73,-31.61,0,*74
1486890400.21,10293,11.81,74052.0,9.93,-30.55,-31.29,0,*7D
1486890401.42,10294,11.81,74052.8,9.95,-30.33,-31.17,0,*71
1486890402.67,10295,11.81,74052.8,9.93,-30.27,-31.11,0,*75
1486890403.88,10296,11.81,74054.8,9.95,-31.45,-32.13,0,*74
1486890405.13,10297,11.81,74056.8,9.93,-31.79,-32.45,0,*7F
1486890406.35,10298,11.81,74052.8,9.93,-32.13,-32.91,0,*76
1486890407.58,10299,11.81,74056.3,9.93,-32.13,-32.91,0,*77
1486890408.85,10300,11.81,74052.3,9.93,-32.45,-33.27,0,*79
1486890410.13,10301,11.81,74050.8,9.93,-31.23,-31.85,0,*71
1486890411.37,10302,11.81,74052.5,9.93,-31.39,-32.01,0,*76
1486890412.65,10303,11.81,74050.8,9.93,-31.11,-31.95,0,*73
1486890413.93,10304,11.81,74050.5,9.93,-30.89,-31.61,0,*7F
1486890415.16,10305,11.81,74052.0,9.95,-31.39,-32.23,0,*77
1486890416.43,10306,11.81,74052.3,9.93,-31.61,-32.45,0,*7F
1486890417.68,10307,11.81,74054.8,9.93,-31.39,-32.13,0,*70
1486890418.93,10308,11.81,74052.0,9.93,-31.45,-32.19,0,*7E
1486890420.18,10309,11.81,74050.8,9.93,-32.69,-33.61,0,*7C
1486890421.44,10310,11.81,74050.0,9.93,-32.75,-33.67,0,*7F
1486890422.66,10311,11.81,74052.8,9.93,-33.95,-34.71,0,*71
1486890423.85,10312,11.81,74052.8,9.91,-32.91,-33.83,0,*7F
1486890425.08,10313,11.81,74056.3,9.89,-32.39,-33.15,0,*7A
1486890426.33,10314,11.81,74054.3,9.89,-31.11,-31.67,0,*73
1486890427.58,10315,11.81,74054.0,9.89,-32.39,-33.31,0,*7A
1486890428.83,10316,11.81,74048.8,9.89,-33.15,-34.01,0,*72
1486890430.09,10317,11.81,74054.5,9.89,-31.91,-32.51,0,*7E
1486890431.34,10318,11.81,74052.8,9.87,-31.73,-32.45,0,*76
1486890432.57,10319,11.81,74050.3,9.91,-30.83,-31.51,0,*78
1486890433.8,10320,11.81,74052.8,9.91,-30.51,-31.29,0,*72
1486890435.01,10321,11.81,74052.0,9.91,-30.11,-30.67,0,*7C
1486890436.23,10322,11.81,74054.0,9.91,-30.83,-31.57,0,*76
1486890437.45,10323,11.81,74054.8,9.91,-31.17,-31.85,0,*74
1486890438.68,10324,11.81,74048.3,9.91,-31.17,-31.85,0,*73
1486890439.9,10325,11.81,74052.3,9.95,-30.39,-31.17,0,*70
1486890441.12,10326,11.81,74054.5,9.93,-30.45,-31.29,0,*73
1486890442.33,10327,11.81,74052.0,9.95,-30.67,-31.33,0,*7F
1486890443.57,10328,11.81,74054.0,9.95,-30.89,-31.57,0,*72
1486890444.8,10329,11.81,74050.8,9.95,-31.01,-31.61,0,*77
1486890446.05,10330,11.81,74050.3,9.95,-30.55,-31.23,0,*79
1486890447.3,10331,11.81,74054.0,9.99,-30.51,-31.23,0,*70
1486890448.5,10332,11.81,74052.5,9.99,-30.27,-31.01,0,*72
1486890449.75,10333,11.81,74052.5,10.01,-31.17,-31.73,0,*4D
1486890451.01,10334,11.81,74050.0,9.99,-31.95,-32.79,0,*70
1486890452.26,10335,11.81,74052.8,9.99,-31.91,-32.45,0,*7A
1486890453.51,10336,11.81,74052.5,9.99,-32.07,-32.97,0,*7A
1486890454.73,10337,11.81,74054.8,9.99,-33.49,-34.41,0,*7D
1486890455.98,10338,11.81,74054.8,9.99,-31.61,-32.29,0,*72
1486890457.21,10339,11.81,74054.0,9.95,-31.73,-32.51,0,*73
1486890458.47,10340,11.81,74050.8,9.99,-31.39,-32.07,0,*7C
1486890459.69,10341,11.81,74052.8,9.95,-30.83,-31.57,0,*77
1486890460.89,10342,11.81,74054.3,9.99,-31.17,-31.79,0,*78
1486890462.11,10343,11.81,74054.8,9.99,-32.29,-33.03,0,*78
1486890463.36,10344,11.81,74050.8,9.95,-31.39,-32.07,0,*74
1486890464.59,10345,11.81,74054.5,9.99,-31.01,-31.61,0,*71
1486890465.81,10346,11.81,74052.5,10.01,-31.33,-31.79,0,*43
1486890467.09,10347,11.81,74054.8,10.01,-31.85,-32.45,0,*43
1486890468.31,10348,11.81,74052.5,9.99,-31.17,-31.73,0,*78
1486890469.59,10349,11.81,74054.0,10.01,-31.51,-32.19,0,*4D
1486890470.81,10350,11.81,74054.3,9.99,-31.17,-31.61,0,*72
1486890472.01,10351,11.81,74054.8,9.99,-33.15,-33.95,0,*7A
1486890473.23,10352,11.81,74052.5,9.95,-33.95,-34.83,0,*7D
1486890474.48,10353,11.81,74050.8,9.95,-32.63,-33.49,0,*75
1486890475.7,10354,11.81,74052.8,9.93,-32.13,-33.03,0,*7D
1486890476.96,10355,11.81,74052.0,9.95,-31.61,-32.45,0,*7F
1486890478.22,10356,11.81,74052.3,9.95,-31.73,-32.45,0,*7F
1486890479.46,10357,11.81,74054.3,9.95,-32.29,-32.97,0,*7D
1486890480.69,10358,11.81,74050.3,9.93,-32.13,-32.91,0,*7B
1486890481.92,10359,11.81,74050.8,9.93,-32.01,-32.51,0,*75
1486890483.15,10360,11.81,74054.0,9.95,-31.33,-31.95,0,*70
1486890484.43,10361,11.81,74052.8,9.93,-31.39,-31.95,0,*7D
1486890485.68,10362,11.81,74050.8,9.95,-31.61,-32.29,0,*71
1486890486.89,10363,11.81,74050.3,9.95,-31.79,-32.51,0,*76
1486890488.14,10364,11.81,74054.0,9.95,-31.39,-32.07,0,*76
1486890489.37,10365,11.81,74054.0,9.95,-32.07,-33.03,0,*7C
1486890490.6,10366,11.81,74054.3,9.95,-33.49,-34.13,0,*72
1486890491.88,10367,11.81,74054.3,9.93,-31.61,-32.29,0,*72
1486890493.12,10368,11.81,74056.3,9.93,-31.51,-32.23,0,*74
1486890494.4,10369,11.81,74052.0,9.93,-30.95,-31.61,0,*79
1486890495.63,10370,11.81,74054.8,9.95,-30.89,-31.45,0,*7C
1486890496.83,10371,11.81,74052.0,9.99,-31.17,-31.79,0,*78
1486890498.03,10372,11.81,74052.0,9.99,-31.33,-32.13,0,*72
1486890499.28,10373,11.81,74058.0,10.01,-31.29,-31.91,0,*48
1486890500.53,10374,11.81,74052.3,10.01,-31.17,-31.73,0,*4E
1486890501.74,10375,11.81,74054.0,10.01,-31.01,-31.67,0,*4D
1486890502.97,10376,11.81,74052.0,9.99,-31.17,-31.73,0,*75